TimeAKDT,TemperatureF,Dew PointF,Humidity,Sea Level PressureIn,VisibilityMPH,Wind Direction,Wind SpeedMPH,Gust SpeedMPH,PrecipitationIn,Events,Conditions,WindDirDegrees,DateUTC
12:53 AM,54.0,42.1,64,30.01,10.0,NNE,3.5,-,N/A,,Clear,20,2013-06-13 08:53:00
1:53 AM,53.1,42.1,66,30.04,10.0,NNE,3.5,-,N/A,,Clear,20,2013-06-13 09:53:00
2:53 AM,52.0,41.0,66,30.03,10.0,Calm,Calm,-,N/A,,Clear,0,2013-06-13 10:53:00
3:53 AM,51.1,41.0,68,30.04,10.0,NNE,4.6,-,N/A,,Clear,30,2013-06-13 11:53:00
4:53 AM,51.1,41.0,68,30.06,10.0,NNE,4.6,-,N/A,,Clear,30,2013-06-13 12:53:00
5:53 AM,51.1,42.1,71,30.08,10.0,NE,3.5,-,N/A,,Clear,40,2013-06-13 13:53:00
6:53 AM,52.0,45.0,77,30.07,10.0,SSW,12.7,-,N/A,,Clear,210,2013-06-13 14:53:00
7:53 AM,50.0,45.0,83,30.08,10.0,SW,12.7,-,N/A,,Clear,230,2013-06-13 15:53:00
8:53 AM,51.1,46.0,83,30.09,10.0,SW,16.1,-,N/A,,Partly Cloudy,220,2013-06-13 16:53:00
9:53 AM,53.1,45.0,74,30.09,10.0,SW,16.1,-,N/A,,Overcast,220,2013-06-13 17:53:00
10:53 AM,53.1,46.0,77,30.11,10.0,SSW,16.1,-,N/A,,Scattered Clouds,210,2013-06-13 18:53:00
11:53 AM,55.9,46.0,69,30.09,10.0,SSW,16.1,-,N/A,,Mostly Cloudy,210,2013-06-13 19:53:00
12:53 PM,60.1,45.0,57,30.09,10.0,SSW,19.6,26.5,N/A,,Partly Cloudy,200,2013-06-13 20:53:00
1:53 PM,62.1,44.1,52,30.08,10.0,SSW,20.7,27.6,N/A,,Clear,200,2013-06-13 21:53:00
2:53 PM,62.1,45.0,53,30.08,10.0,SSW,19.6,-,N/A,,Clear,200,2013-06-13 22:53:00
3:53 PM,62.1,45.0,53,30.09,10.0,SSW,17.3,-,N/A,,Clear,200,2013-06-13 23:53:00
4:53 PM,61.0,44.1,54,30.08,10.0,SSW,21.9,-,N/A,,Clear,210,2013-06-14 00:53:00
5:53 PM,61.0,44.1,54,30.08,10.0,SSW,19.6,-,N/A,,Clear,200,2013-06-14 01:53:00
6:53 PM,60.1,44.1,55,30.08,10.0,SSW,16.1,-,N/A,,Clear,200,2013-06-14 02:53:00
7:53 PM,57.9,45.0,62,30.09,10.0,SSW,18.4,25.3,N/A,,Clear,210,2013-06-14 03:53:00
8:53 PM,55.9,45.0,67,30.11,10.0,SSW,15.0,-,N/A,,Scattered Clouds,210,2013-06-14 04:53:00
9:53 PM,57.0,45.0,64,30.12,10.0,SSW,10.4,-,N/A,,Scattered Clouds,210,2013-06-14 05:53:00
10:53 PM,52.0,45.0,77,30.14,10.0,SW,8.1,-,N/A,,Mostly Cloudy,230,2013-06-14 06:53:00
11:53 PM,53.1,45.0,74,30.14,10.0,Calm,Calm,-,N/A,,Partly Cloudy,0,2013-06-14 07:53:00